AO-07 1 07530U 74089B 26104.80835497 -.00000031 00000-0 99650-4 0 9998 2 07530 101.9943 117.3869 0011881 251.4630 281.9682 12.53697074352571 UO-11 1 14781U 84021B 26104.85657553 .00000919 00000-0 99434-4 0 9995 2 14781 97.8006 71.1670 0008612 42.2604 317.9276 14.90630907247692 AO-27 1 22825U 93061C 26104.43865962 .00000051 00000-0 36388-4 0 9992 2 22825 98.6918 171.8634 0007258 289.9293 70.1107 14.30924935697880 FO-29 1 24278U 96046B 26104.87384285 -.00000018 00000-0 20178-4 0 9998 2 24278 98.5320 322.3888 0348812 260.7189 95.4354 13.53271141464603 GO-32 1 25397U 98043D 26104.70492750 .00000033 00000-0 34438-4 0 9999 2 25397 99.0057 95.8692 0002137 61.6834 298.4559 14.24415740442293 ISS 1 25544U 98067A 26104.84437811 .00006957 00000-0 13466-3 0 9999 2 25544 51.6321 253.5853 0006504 313.2650 46.7795 15.48918397561933 NO-44 1 26931U 01043C 26104.52959816 .00000056 00000-0 52057-4 0 9991 2 26931 67.0516 48.9154 0006678 264.3741 95.6600 14.31930927281335 SO-50 1 27607U 02058C 26104.36124041 .00000490 00000-0 75982-4 0 9999 2 27607 64.5526 326.4408 0075539 274.0911 85.1564 14.82907422254999 CO-55 1 27844U 03031E 26104.46186940 .00000209 00000-0 10934-3 0 9994 2 27844 98.6765 113.8179 0009852 18.0224 342.1302 14.24295708182603 RS-22 1 27939U 03042A 26104.86032759 .00000617 00000-0 10345-3 0 9992 2 27939 98.3465 287.4352 0012483 107.6183 359.4305 14.73353221206224 CO-65 1 32785U 08021C 26104.86172903 .00002708 00000-0 17613-3 0 9993 2 32785 97.8245 85.0082 0007292 237.9227 122.1294 15.08855999975648 CO-66 1 32791U 08021J 26104.43703382 .00009383 00000-0 31979-3 0 9991 2 32791 97.7523 99.4047 0004126 138.8857 221.2694 15.30601442977536 RS-30 1 32953U 08025A 26104.84266176 .00000054 00000-0 31350-3 0 9994 2 32953 82.5063 34.8343 0020591 88.6227 271.7212 12.43177784811829 SRMSAT 1 37841U 11058D 26104.61807969 .00000358 00000-0 50572-4 0 9996 2 37841 19.9717 84.2347 0011634 223.7287 292.4418 14.11560239748824 ZACUBE-1 1 39417U 13066B 26104.87402616 .00002285 00000-0 18172-3 0 9996 2 39417 97.8127 66.8749 0044951 103.1758 257.4486 15.00667069671233 Delfi-N3xt 1 39428U 13066N 26104.04484015 .00004572 00000-0 40719-3 0 9993 2 39428 97.8339 24.4543 0077255 60.7818 300.1100 14.94248948665044 GOMX-1 1 39430U 13066Q 26104.85302553 .00000963 00000-0 15238-3 0 9999 2 39430 97.6541 309.3007 0127634 281.1522 77.5358 14.69232815660614 LO-74 1 39440U 13066AA 26104.81769558 .00001855 00000-0 17739-3 0 9997 2 39440 97.8861 53.5706 0056544 236.6990 122.8807 14.93335670667532 AO-73 1 39444U 13066AE 26104.86471219 .00005573 00000-0 35475-3 0 9998 2 39444 97.8231 75.0488 0038536 60.7459 299.7613 15.08584893670117 DTUSAT-2 1 40030U 14033W 26104.41813505 .00003530 00000-0 19742-3 0 9995 2 40030 98.0867 98.1443 0009897 93.2058 267.0305 15.14170429643039 LILACSAT-2 1 40908U 15049K 26104.82671788 .00010537 00000-0 19358-3 0 9995 2 40908 97.4747 139.3297 0008833 117.9344 242.2802 15.49387253585933 Horyu-4 1 41340U 16012D 26104.58874023 .00078460 00000-0 60057-3 0 9998 2 41340 30.9890 175.5144 0006087 132.2381 227.8791 15.70725256560749 Lapan A3 1 41603U 16040E 26104.87101583 .00002132 00000-0 69842-4 0 9992 2 41603 97.1489 103.1201 0008677 236.7198 123.3214 15.32693274545110 CAS-2T 1 41847U 16066G 26104.44800395 .00000374 00000-0 62558-4 0 9993 2 41847 98.3840 180.9010 0341482 323.1257 34.6882 14.44554141495598 TechnoSat 1 42829U 17042E 26104.67725079 .00001209 00000-0 90206-4 0 9998 2 42829 97.4196 264.7962 0016729 313.8802 46.1042 15.04566820477157 AO-91 1 43017U 17073E 26104.61490507 .00004040 00000-0 18232-3 0 9995 2 43017 97.4804 333.1591 0153403 187.3323 172.5665 15.11591535455784 S-Net D 1 43186U 18014G 26104.65036647 .00002264 00000-0 12107-3 0 9994 2 43186 97.5410 9.8524 0006800 231.1575 128.9051 15.16082171449135 S-Net B 1 43187U 18014H 26104.59458196 .00002568 00000-0 13697-3 0 9997 2 43187 97.5416 9.7817 0007558 226.4779 133.5826 15.16053528449125 S-Net A 1 43188U 18014J 26104.64954549 .00002263 00000-0 12102-3 0 9999 2 43188 97.5426 10.0333 0007400 227.0650 132.9963 15.16088987449139 S-Net C 1 43189U 18014K 26104.73011051 .00002593 00000-0 13827-3 0 9993 2 43189 97.5444 10.1784 0008989 219.4784 140.5794 15.16046157447696 Ten-Koh 1 43677U 18084G 26104.40297358 .00002051 00000-0 15867-3 0 9997 2 43677 98.0789 294.0838 0009119 335.7913 24.2881 15.02668168406586 PO-101 1 43678U 18084H 26104.80980950 .00001337 00000-0 11217-3 0 9990 2 43678 98.1052 298.3337 0013862 21.6166 338.5638 15.00146505406713 QO-100 1 43700U 18090A 26104.80567102 .00000149 00000-0 00000 0 0 9997 2 43700 0.0142 249.0402 0001174 155.3843 114.3768 1.00272007 27048 MinXSS-2 1 43758U 18099A 26104.61111799 .00018115 00000-0 41353-3 0 9997 2 43758 97.4574 179.2302 0009262 135.2032 224.9965 15.42889125404318 AO-95 1 43770U 18099N 26104.40630258 .00005552 00000-0 22287-3 0 9990 2 43770 97.4444 164.9389 0008558 202.4944 157.5920 15.25352680403492 SNUSat 2 1 43782U 18099AA 26104.40105493 .00004080 00000-0 18756-3 0 9992 2 43782 97.4126 158.7924 0011449 152.5660 207.6183 15.20860892403336 SnugLite 1 43784U 18099AC 26104.62264444 .00006144 00000-0 24311-3 0 9997 2 43784 97.3938 159.5757 0004188 136.5708 223.5861 15.25805825403620 ITASat 1 1 43786U 18099AE 26104.63468859 .00003640 00000-0 18075-3 0 9994 2 43786 97.4099 157.4335 0012160 207.1904 152.8694 15.18247189403265 EAGLET 1 1 43790U 18099AJ 26104.08612035 .00002728 00000-0 16040-3 0 9991 2 43790 97.4300 155.4548 0010770 199.4046 160.6777 15.12454904402643 ESEO 1 43792U 18099AL 26104.38295927 .00001368 00000-0 10295-3 0 9998 2 43792 97.4048 144.4898 0012048 184.0852 176.0278 15.04056001402212 JO-97 1 43803U 18099AX 26104.63374980 .00008396 00000-0 27687-3 0 9997 2 43803 97.4191 167.3304 0007311 131.4510 228.7360 15.31669786403896 Suomi 100 1 43804U 18099AY 26104.14578169 .00005628 00000-0 21482-3 0 9991 2 43804 97.4250 164.8310 0011484 141.5850 218.6209 15.26995560403646 ISAT 1 43879U 18111D 26104.79407628 .00038717 00000-0 55621-3 0 9997 2 43879 97.5908 35.6476 0007565 139.8875 220.2939 15.55976796401288 UWE-4 1 43880U 18111E 26104.57888846 .00016577 00000-0 38501-3 0 9998 2 43880 97.5859 30.2375 0008277 174.4076 185.7265 15.42404792400962 Sparrow 1 43881U 18111F 26104.77503072 .00049188 00000-0 58552-3 0 9998 2 43881 97.6113 40.3666 0005041 146.4361 213.7216 15.60962530401445 Prox-1 1 44339U 19036A 26104.49600444 .00006907 00000-0 68544-3 0 9998 2 44339 23.9947 179.1877 0006514 23.8142 336.2658 14.89112700363968 Taurus 1 1 44530U 19059C 26104.81075366 .00004006 00000-0 65554-3 0 9997 2 44530 98.6355 265.7612 0009711 147.2701 212.9107 14.71392559349322 TO-108 1 44881U 19093C 26104.83585784 .00000937 00000-0 11210-3 0 9995 2 44881 97.7562 178.6086 0012218 299.2854 60.7140 14.86419867342003 RS-44 1 44909U 19096E 26104.52218307 .00000001 00000-0 -30916-4 0 9997 2 44909 82.5263 22.0082 0216466 293.4051 64.4419 12.79747898294204 SALSAT 1 46495U 20068K 26104.87438839 .00004746 00000-0 17197-3 0 9996 2 46495 97.8862 104.1326 0010673 155.1560 205.0194 15.28868199305687 CSS (TIANHE-1) 1 48274U 21035A 26104.84996935 .00016086 00000-0 17964-3 0 9993 2 48274 41.4685 347.8435 0005562 209.4927 150.5599 15.62394233283263 CUTE 1 49263U 21088D 26104.25477727 .00048598 00000-0 36005-3 0 9998 2 49263 97.4197 198.5900 0003235 200.3042 159.8093 15.72777860252452 TeikyoSat 4 1 49396U 21102B 26104.61112560 .00001010 00000-0 67091-4 0 9991 2 49396 97.3736 136.5567 0013015 145.8325 214.3745 15.09282532243135 Z-Sat 1 49399U 21102E 26104.85122134 .00001522 00000-0 78279-4 0 9996 2 49399 97.3399 142.0985 0018481 106.7539 253.5725 15.17776728243838 KOSEN 1 1 49402U 21102H 26104.61731606 .00004020 00000-0 15881-3 0 9990 2 49402 97.3263 148.0289 0015562 75.5966 284.6998 15.25962478244320 HO-113 1 50466U 21131B 26104.88175044 .00000192 00000-0 73130-4 0 9999 2 50466 98.4947 197.6266 0002912 295.7688 64.3201 14.41295613225999 SNUGLITE 2 1 52899U 22065F 26104.82262963 .00000630 00000-0 12886-3 0 9996 2 52899 98.2105 249.8019 0006797 214.3418 145.7346 14.64225905201725 UmKA 1 (RS40S) 1 57172U 23091G 26104.84839590 .00003325 00000-0 15682-3 0 9994 2 57172 97.5111 163.8055 0012268 347.8036 12.2900 15.20117361154388 CubeBel-2 (EU11S) 1 57175U 23091K 26104.87402125 .00007073 00000-0 26378-3 0 9998 2 57175 97.5110 167.5825 0009260 347.1108 12.9893 15.27703240154637 RS-38S 1 57189U 23091Z 26104.84924934 .00008724 00000-0 26687-3 0 9994 2 57189 97.5138 173.1519 0005987 298.5001 61.5638 15.34081062154971 SONATE-2 1 59112U 24043Q 26104.87454970 .00023876 00000-0 36579-3 0 9997 2 59112 97.5453 251.6422 0007334 79.4838 280.7242 15.54314096118048 GRBBeta 1 60237U 24128C 26104.49534375 .00002024 00000-0 14909-3 0 9992 2 60237 61.9887 79.6386 0048128 121.2198 239.3625 15.06133281 96673 Curium One 1 60242U 24128H 26104.61612769 .00004082 00000-0 24668-3 0 9995 2 60242 61.9781 70.7525 0047775 117.5031 243.0932 15.11508659 96843 ROBUSTA-3A 1 60243U 24128J 26104.48001752 .00003914 00000-0 24217-3 0 9998 2 60243 61.9856 73.3601 0048837 114.9690 245.6490 15.10691613 96796 CatSat 1 60246U 24125J 26104.37704528 .00028769 00000-0 46644-3 0 9990 2 60246 97.2170 316.3493 0025602 61.7131 298.6701 15.52347252 97475 HYPERVIEW-1G (RS66S) 1 61772U 24199AP 26104.85377632 .00047432 00000-0 51080-3 0 9999 2 61772 97.3012 341.9983 0009215 138.3383 221.8580 15.63524690124745 AO-123 1 61781U 24199AY 26104.87468743 .00004600 00000-0 13852-3 0 9990 2 61781 97.3098 334.1282 0014406 169.1289 191.0268 15.34750698124210 JINJUSat 1B 1 63210U 25052A 26104.15605550 .00008279 00000-0 27418-3 0 9997 2 63210 97.4079 0.9003 0002248 352.5315 7.5892 15.31560239 60295 NUSHSAT 1 1 63211U 25052B 26104.61855970 .00010019 00000-0 31108-3 0 9998 2 63211 97.4058 1.7329 0002193 1.1820 358.9428 15.33568930 60397 TEVEL2-4 1 63213U 25052D 26104.62513587 .00009013 00000-0 29017-3 0 9994 2 63213 97.3980 0.9965 0002519 27.4123 332.7251 15.32441433 60377 TEVEL2-5 1 63214U 25052E 26104.63916523 .00009234 00000-0 29852-3 0 9995 2 63214 97.3978 0.9753 0002507 27.4017 332.7356 15.32300235 60379 TEVEL2-6 1 63215U 25052F 26104.64993691 .00009505 00000-0 30758-3 0 9996 2 63215 97.3983 0.9713 0002594 25.1375 334.9992 15.32260434 60376 TEVEL2-1 1 63217U 25052H 26104.46254423 .00009315 00000-0 30586-3 0 9999 2 63217 97.3953 0.4796 0003177 34.6991 325.4457 15.31794864 60333 TEVEL2-3 1 63218U 25052J 26104.45920779 .00009500 00000-0 31146-3 0 9992 2 63218 97.3957 0.4912 0003220 34.7625 325.3826 15.31838236 60333 TEVEL2-2 1 63219U 25052K 26103.67922106 .00009195 00000-0 30205-3 0 9997 2 63219 97.3954 359.6991 0003274 36.9163 323.2303 15.31785334 60211 TEVEL2-9 1 63237U 25052AD 26104.62354769 .00007868 00000-0 27346-3 0 9994 2 63237 97.4014 0.1454 0006883 26.3126 333.8463 15.29989969 60303 TEVEL2-7 1 63238U 25052AE 26104.45705609 .00008696 00000-0 30426-3 0 9992 2 63238 97.4020 359.9201 0007015 26.5119 333.6479 15.29739584 60275 TEVEL2-8 1 63239U 25052AF 26103.61418883 .00008203 00000-0 28746-3 0 9991 2 63239 97.4017 359.0601 0007132 30.0262 330.1386 15.29705162 60146 HYDRA-W 1 63490U 25052BL 26104.62284421 .00525064 10849-3 16841-2 0 9997 2 63490 97.3777 8.0138 0005913 140.9563 219.2138 15.90955667 60847 HADES-ICM (SO-125) 1 63492U 25052BN 26104.47883696 .00158505 00000-0 12433-2 0 9991 2 63492 97.3893 6.5635 0003945 81.3378 278.8331 15.71060930 60731 SPIRONE 1 66657U 25274H 26104.53573665 .00001329 00000-0 13221-3 0 9990 2 66657 97.7462 34.7584 0010993 220.7940 139.2458 14.93285570 20721 K-HERO 1 66660U 25274L 26104.55847345 .00001455 00000-0 14267-3 0 9996 2 66660 97.7466 34.8941 0012758 226.2735 133.7429 14.93723876 20735 SNUGLITE-III DURI 1 66661U 25274M 26104.54852602 .00001389 00000-0 13623-3 0 9999 2 66661 97.7466 34.9021 0013403 227.5355 132.4732 14.93790062 20730 SilverSat 1 66909U 98067XV 26104.63225978 .00604298 17171-3 11809-2 0 9995 2 66909 51.6142 237.7864 0013798 318.6019 41.3944 15.99420490 20880 SAKHACUBE-CHOLBON 1 67290U 25313AU 26104.48288387 .00005457 00000-0 22988-3 0 9992 2 67290 97.3962 180.3649 0008924 211.5291 148.5412 15.23723241 16278 RS95S (QMR-KWT-2) 1 67291U 25313AV 26104.19074687 .00006734 00000-0 27546-3 0 9991 2 67291 97.3961 180.1434 0008789 211.1159 148.9560 15.24630122 16236 Ten-Koh2 1 68261U 25241B 26104.45231837 .00004846 00000-0 21669-3 0 9992 2 68261 51.6423 262.8255 0004999 292.4969 67.5478 15.23069381 5198 IO-86 1 40931U 25360.30710720 .00000000 00000-0 12800-3 0 00 2 40931 6.0006 332.5373 0012733 338.8432 8.1437 14.79075515 01 HADES-SA/SpinnyONE 1 71958C 26067D 26089.49758863 -.00009989 00000 0 -51655-3 0 00 2 71958 97.4320 49.1630 0007687 13.6276 327.6456 15.16316797 13 LILIUM-4 1 71922C 26067AC 26089.50133053 -.00014632 00000 0 -74472-3 0 04 2 71922 97.4497 49.1617 0004341 5.9603 355.7042 15.16896692 16 PARUS-6U1 1 71919C 26067Q 26089.49893470 -.00013781 00000 0 -70600-3 0 07 2 71919 97.4488 49.1589 0005235 359.3198 349.2677 15.16662579 15 JACK-002 1 71927C 26067C 26089.49750414 -.00013014 00000 0 -63498-3 0 02 2 71927 97.4500 49.1567 0002681 143.8886 196.8842 15.18377566 18 SAL-E 1 71904C 26067L 26089.49846595 -.00007742 00000 0 -39877-3 0 08 2 71904 97.4412 49.1602 0006442 8.2554 337.7892 15.16462720 16 DISCO-2 1 71908C 26067U 26089.49955160 -.00011726 00000 0 -58129-3 0 09 2 71908 97.4541 49.1588 0000289 282.0588 69.8834 15.17826845 10